When you browse on this site, cookies collect data to enhance your experience and personalize the content and advertising you see.
Visit our Privacy Policy to learn more. By continuing to use the site, you agree to this use of cookies and data.
  • Em Portugal
  • Lista de países
  • Para 7 dias
  • Temperatura da água
  • Mapas de satélite
  • Mapa do tempo
  • Widgets de tempo
  • user-avatar
    Iniciar Sessão

    Previsão horária em Chrzastowo

    Hoje, 17 Julho, Quarta-feira

    Tempo Temperatura Precipitação Vento Pressão Humidade
    00:00 +12°C° 0 mm 4 m/s 744 mmHg 93%
    01:00 +12°C° 0 mm 4 m/s 744 mmHg 92%
    02:00 +12°C° 0 mm 4 m/s 744 mmHg 93%
    03:00 +11°C° 0 mm 3 m/s 744 mmHg 94%
    04:00 +11°C° 0 mm 3 m/s 744 mmHg 95%
    05:00 +12°C° 0 mm 3 m/s 744 mmHg 90%
    06:00 +13°C° 0 mm 4 m/s 744 mmHg 84%
    07:00 +14°C° 0 mm 4 m/s 744 mmHg 78%
    08:00 +17°C° 0 mm 4 m/s 745 mmHg 72%
    09:00 +18°C° 0 mm 4 m/s 745 mmHg 66%
    10:00 +19°C° 0 mm 4 m/s 745 mmHg 60%
    11:00 +19°C° 0 mm 4 m/s 745 mmHg 58%
    12:00 +20°C° 0 mm 4 m/s 745 mmHg 55%
    13:00 +21°C° 0 mm 4 m/s 746 mmHg 53%
    14:00 +21°C° 0 mm 4 m/s 746 mmHg 53%
    15:00 +21°C° 0 mm 4 m/s 746 mmHg 53%
    16:00 +21°C° 0 mm 4 m/s 746 mmHg 52%
    17:00 +19°C° 0 mm 3 m/s 746 mmHg 58%
    18:00 +18°C° 0 mm 3 m/s 746 mmHg 63%
    19:00 +17°C° 0 mm 3 m/s 746 mmHg 68%
    20:00 +15°C° 0 mm 2 m/s 746 mmHg 75%
    21:00 +13°C° 0 mm 2 m/s 746 mmHg 82%
    22:00 +12°C° 0 mm 2 m/s 746 mmHg 89%
    23:00 +10°C° 0 mm 2 m/s 746 mmHg 90%

    Amanhã, 18 Julho, Quinta-feira

    Tempo Temperatura Precipitação Vento Pressão Humidade
    00:00 +10°C° 0 mm 1 m/s 746 mmHg 92%
    01:00 +10°C° 0 mm 1 m/s 746 mmHg 93%
    02:00 +10°C° 0 mm 1 m/s 746 mmHg 93%
    03:00 +9°C° 0 mm 1 m/s 746 mmHg 92%
    04:00 +8°C° 0 mm 0 m/s 746 mmHg 92%
    05:00 +10°C° 0 mm 0 m/s 746 mmHg 83%
    06:00 +13°C° 0 mm 0 m/s 746 mmHg 75%
    07:00 +15°C° 0 mm 0 m/s 746 mmHg 66%
    08:00 +17°C° 0 mm 0 m/s 747 mmHg 62%
    09:00 +19°C° 0 mm 0 m/s 747 mmHg 57%
    10:00 +21°C° 0 mm 0 m/s 747 mmHg 52%
    11:00 +21°C° 0.1 mm 0 m/s 747 mmHg 52%
    12:00 +21°C° 0.1 mm 0 m/s 747 mmHg 51%
    13:00 +22°C° 0.1 mm 0 m/s 746 mmHg 50%
    14:00 +23°C° 0.1 mm 1 m/s 746 mmHg 53%
    15:00 +23°C° 0.1 mm 1 m/s 746 mmHg 56%
    16:00 +23°C° 0.1 mm 2 m/s 746 mmHg 59%
    17:00 +22°C° 0.2 mm 1 m/s 746 mmHg 65%
    18:00 +21°C° 0.2 mm 1 m/s 746 mmHg 72%
    19:00 +20°C° 0.2 mm 1 m/s 746 mmHg 78%
    20:00 +19°C° 0 mm 1 m/s 746 mmHg 82%
    21:00 +16°C° 0 mm 1 m/s 746 mmHg 86%
    22:00 +15°C° 0 mm 1 m/s 747 mmHg 90%
    23:00 +15°C° 0 mm 1 m/s 746 mmHg 91%

    Depois de amanhã, 19 Julho, Sexta-feira

    Tempo Temperatura Precipitação Vento Pressão Humidade
    00:00 +14°C° 0 mm 1 m/s 746 mmHg 91%
    01:00 +14°C° 0 mm 1 m/s 746 mmHg 92%
    02:00 +13°C° 0 mm 1 m/s 746 mmHg 91%
    03:00 +13°C° 0 mm 1 m/s 746 mmHg 91%
    04:00 +12°C° 0 mm 0 m/s 746 mmHg 90%
    05:00 +15°C° 0 mm 1 m/s 746 mmHg 84%
    06:00 +18°C° 0 mm 1 m/s 746 mmHg 77%
    07:00 +19°C° 0 mm 1 m/s 746 mmHg 71%
    08:00 +21°C° 0 mm 1 m/s 746 mmHg 63%
    09:00 +22°C° 0 mm 1 m/s 747 mmHg 56%
    10:00 +24°C° 0 mm 2 m/s 747 mmHg 49%
    11:00 +24°C° 0 mm 2 m/s 747 mmHg 47%
    12:00 +25°C° 0 mm 2 m/s 747 mmHg 45%
    13:00 +26°C° 0 mm 2 m/s 746 mmHg 43%
    14:00 +26°C° 0 mm 1 m/s 746 mmHg 43%
    15:00 +26°C° 0 mm 1 m/s 746 mmHg 44%
    16:00 +26°C° 0 mm 1 m/s 746 mmHg 44%
    17:00 +24°C° 0 mm 1 m/s 746 mmHg 50%
    18:00 +23°C° 0 mm 1 m/s 746 mmHg 55%
    19:00 +20°C° 0 mm 0 m/s 746 mmHg 60%
    20:00 +19°C° 0 mm 0 m/s 746 mmHg 63%
    21:00 +20°C° 0 mm 1 m/s 746 mmHg 65%
    22:00 +19°C° 0 mm 1 m/s 747 mmHg 67%
    23:00 +19°C° 0 mm 1 m/s 747 mmHg 67%

    20 Julho, Sábado

    Tempo Temperatura Precipitação Vento Pressão Humidade
    00:00 +19°C° 0 mm 1 m/s 747 mmHg 67%
    01:00 +19°C° 0 mm 1 m/s 747 mmHg 67%
    02:00 +18°C° 0 mm 1 m/s 747 mmHg 69%
    03:00 +18°C° 0 mm 1 m/s 747 mmHg 71%
    04:00 +16°C° 0 mm 1 m/s 747 mmHg 73%
    05:00 +18°C° 0 mm 1 m/s 747 mmHg 69%
    06:00 +20°C° 0 mm 1 m/s 747 mmHg 66%
    07:00 +21°C° 0 mm 1 m/s 747 mmHg 63%
    08:00 +23°C° 0 mm 2 m/s 747 mmHg 59%
    09:00 +24°C° 0 mm 2 m/s 748 mmHg 54%
    10:00 +26°C° 0 mm 2 m/s 748 mmHg 50%
    11:00 +27°C° 0 mm 2 m/s 748 mmHg 48%
    12:00 +27°C° 0 mm 3 m/s 748 mmHg 47%
    13:00 +28°C° 0 mm 3 m/s 748 mmHg 45%
    14:00 +28°C° 0 mm 3 m/s 748 mmHg 47%
    15:00 +28°C° 0 mm 2 m/s 747 mmHg 48%
    16:00 +28°C° 0 mm 2 m/s 747 mmHg 49%
    17:00 +26°C° 0 mm 2 m/s 747 mmHg 54%
    18:00 +25°C° 0 mm 2 m/s 747 mmHg 59%
    19:00 +24°C° 0 mm 2 m/s 747 mmHg 64%
    20:00 +23°C° 0 mm 2 m/s 747 mmHg 66%
    21:00 +21°C° 0 mm 2 m/s 747 mmHg 67%
    22:00 +20°C° 0 mm 3 m/s 747 mmHg 68%
    23:00 +19°C° 0.2 mm 3 m/s 747 mmHg 73%

    21 Julho, Domingo

    Tempo Temperatura Precipitação Vento Pressão Humidade
    00:00 +19°C° 0.2 mm 3 m/s 747 mmHg 78%
    01:00 +18°C° 0.2 mm 3 m/s 747 mmHg 82%
    02:00 +18°C° 0.7 mm 3 m/s 747 mmHg 85%
    03:00 +17°C° 0.7 mm 2 m/s 747 mmHg 88%
    04:00 +17°C° 0.7 mm 2 m/s 746 mmHg 91%
    05:00 +18°C° 0.6 mm 2 m/s 747 mmHg 91%
    06:00 +18°C° 0.6 mm 3 m/s 747 mmHg 90%
    07:00 +19°C° 0.6 mm 3 m/s 747 mmHg 90%
    08:00 +20°C° 0.7 mm 3 m/s 747 mmHg 87%
    09:00 +21°C° 0.7 mm 3 m/s 747 mmHg 85%
    10:00 +22°C° 0.7 mm 3 m/s 747 mmHg 82%
    11:00 +23°C° 0.8 mm 2 m/s 747 mmHg 81%
    12:00 +24°C° 0.8 mm 2 m/s 747 mmHg 79%
    13:00 +24°C° 0.8 mm 1 m/s 747 mmHg 78%
    14:00 +25°C° 0.8 mm 2 m/s 747 mmHg 72%
    15:00 +26°C° 0.8 mm 3 m/s 747 mmHg 67%
    16:00 +27°C° 0.8 mm 4 m/s 747 mmHg 61%
    17:00 +26°C° 0 mm 3 m/s 748 mmHg 67%
    18:00 +24°C° 0 mm 3 m/s 748 mmHg 73%
    19:00 +23°C° 0 mm 2 m/s 748 mmHg 79%
    20:00 +21°C° 0 mm 3 m/s 748 mmHg 84%
    21:00 +19°C° 0 mm 3 m/s 748 mmHg 89%
    22:00 +18°C° 0 mm 3 m/s 749 mmHg 95%
    23:00 +17°C° 0 mm 3 m/s 749 mmHg 94%

    22 Julho, Segunda-feira

    Tempo Temperatura Precipitação Vento Pressão Humidade
    00:00 +17°C° 0 mm 3 m/s 749 mmHg 94%
    01:00 +16°C° 0 mm 3 m/s 749 mmHg 94%
    02:00 +16°C° 0 mm 3 m/s 749 mmHg 95%
    03:00 +16°C° 0 mm 2 m/s 750 mmHg 96%
    04:00 +15°C° 0 mm 2 m/s 750 mmHg 97%
    05:00 +17°C° 0 mm 2 m/s 750 mmHg 93%
    06:00 +18°C° 0 mm 3 m/s 751 mmHg 89%
    07:00 +19°C° 0 mm 3 m/s 751 mmHg 85%
    08:00 +21°C° 0.1 mm 3 m/s 751 mmHg 79%
    09:00 +22°C° 0.1 mm 3 m/s 751 mmHg 73%
    10:00 +25°C° 0.1 mm 3 m/s 752 mmHg 67%
    11:00 +25°C° 0.2 mm 4 m/s 752 mmHg 63%
    12:00 +26°C° 0.2 mm 4 m/s 752 mmHg 59%
    13:00 +27°C° 0.2 mm 4 m/s 752 mmHg 55%
    14:00 +27°C° 0.2 mm 4 m/s 752 mmHg 57%
    15:00 +26°C° 0.2 mm 5 m/s 752 mmHg 59%
    16:00 +26°C° 0.2 mm 5 m/s 752 mmHg 62%
    17:00 +23°C° 0 mm 4 m/s 752 mmHg 67%
    18:00 +22°C° 0 mm 4 m/s 752 mmHg 72%
    19:00 +21°C° 0 mm 3 m/s 752 mmHg 77%
    20:00 +19°C° 0 mm 3 m/s 752 mmHg 84%
    21:00 +18°C° 0 mm 2 m/s 752 mmHg 90%
    22:00 +16°C° 0 mm 2 m/s 752 mmHg 96%
    23:00 +16°C° 0 mm 2 m/s 752 mmHg 96%
    Mostrar mais